Vertical_Velocity
0 2 0 -3 2 1 -1 -2 -0 2 0 -1 -2 -1 -4 2 -1 -3 7 3 -1 -4 -1 1 -1 -2 1 0 0 -1 -2 -3 0 -1 -2 -1 -1 2 -1 3 2 1 -0 0 1 -2 -1 -1 -0
-0 -3 5 3 3 0 -2 0 0 -1 0 1 3 0 -1 2 -2 -1 2 1 1 -1 -1 -2 0 1 1 -2 0 3 -3 3 1 0 1 1 4 0 1 0 2 2 -3 0 -0 -1 -0 0 -1
1 -0 4 2 -0 -0 0 -0 -0 -0 6 2 -1 1 0 3 1 -0 2 -0 -1 -2 6 -2 0 2 1 -1 -0 -1 -1 0 -0 -2 -0 -3 3 0 0 2 2 -1 1 0 0 -1 -1 -3 -1
-7 2 3 3 -0 0 -1 -0 -1 -2 2 -1 2 -2 -2 -3 -5 -2 -1 0 -0 -0 -1 1 -0 -1 -1 0 0 -0 -2 -1 0 1 -2 3 -1 0 -2 -1 2 0 -0 -1 -2 -1 -0 0 0
0 3 1 0 -0 0 -0 0 1 0 0 5 3 4 3 10 2 2 -3 0 -0 -2 -0 1 1 -0 -0 0 2 0 -1 0 -0 0 -1 -1 0 -1 0 -2 -1 -1 2 -2 -1 -1 0 -1 0
3 0 1 -0 -1 -0 0 1 -2 1 1 3 -4 -3 1 1 1 3 -1 1 3 -2 0 0 -1 1 0 -0 0 1 0 0 -0 -1 1 0 2 1 -2 -1 0 -1 -1 2 2 1 2 -1 3
2 -0 -0 -0 -1 1 1 -3 0 -0 -0 3 -4 -2 5 2 1 -0 -1 2 -2 1 -0 -0 -1 2 0 2 2 1 0 -1 -2 -0 -0 1 1 1 -2 -2 -2 3 -1 0 0 -1 -0 -3 4
1 -2 0 -1 -0 1 -1 0 -3 -2 1 3 0 -2 1 -4 1 0 0 4 1 -3 1 1 -1 0 -2 1 -0 0 0 1 2 -0 -2 0 -2 4 0 -1 3 1 -2 1 -1 -1 -0 2 0
2 -1 -0 -2 -0 -2 -2 0 3 0 -5 4 2 -3 -11 1 4 0 3 4 1 1 -2 3 -1 1 -1 1 -0 1 1 0 -1 -1 -2 2 -2 -0 2 1 -0 -2 2 2 -1 -1 -3 -2 -1
0 -0 -3 -3 -1 -1 0 -1 -1 -0 4 1 0 9 -2 -1 2 -3 -0 -2 1 -1 -3 1 0 1 -1 -1 -1 2 1 -1 -0 2 0 -1 1 -0 -2 -3 5 -2 6 -4 0 5 -3 -1 -2
1 -2 -1 -1 -3 2 1 1 -3 -2 1 -4 -9 -2 4 -3 1 1 0 -3 -5 -0 -2 -2 1 3 -1 -1 1 0 -0 -1 -0 -1 -1 -0 -3 -1 1 -2 1 -2 -1 4 -1 -1 -0 1 -2
3 -1 1 -0 2 -3 -1 0 -0 -1 -1 -2 -4 3 -5 -6 -1 -4 -6 -4 -6 -5 -1 -1 0 2 -1 -1 3 1 1 0 -1 -1 -1 -1 1 -0 -1 3 3 1 -0 5 -4 -2 -3 -0 4
4 -2 -0 -2 -0 -0 5 -2 -4 0 -3 1 2 6 1 6 -1 4 2 2 1 -3 -2 -1 -1 1 -0 -1 -0 1 -0 1 0 -2 -1 1 -1 -1 -1 0 1 2 3 8 -4 2 -3 1 4
-2 -2 -3 -5 -5 0 6 -1 -1 6 -0 2 1 -1 2 -1 -5 -0 -1 -2 -2 1 -1 -1 -1 1 -0 -1 -0 1 -0 0 0 -1 -0 -1 -1 -1 -1 0 -2 5 -0 3 -1 -2 -1 2 -3
-3 1 -1 -1 -2 -3 3 2 -0 0 4 0 2 4 2 0 3 -1 -2 -5 -5 -5 1 -3 -1 1 -0 0 -1 -0 0 0 1 0 -0 1 2 -1 2 5 -1 0 2 3 2 -1 -5 0 -0
1 1 -1 -3 1 -6 -4 -6 1 2 -5 1 0 3 -2 -4 -3 -2 3 3 -2 0 -8 1 1 -2 0 -0 -0 -1 -1 0 1 1 -0 2 1 -2 7 -1 1 0 2 1 1 1 -2 -1 0
-3 -1 1 -2 -1 -0 -1 -2 2 4 2 2 1 -0 0 1 2 0 1 2 1 -3 -3 -4 -1 -2 -1 -2 1 1 1 -1 1 -1 -2 1 0 1 6 -0 1 2 -3 -0 1 0 0 -1 1
-3 0 -0 -1 -2 3 1 -2 3 2 0 -3 0 0 -0 -3 -7 -2 0 1 3 0 2 3 -1 0 2 3 2 2 -1 -1 -1 0 -3 -3 -1 2 3 2 -4 1 -3 -1 -2 -1 3 -1 -0
-1 1 -1 -1 -2 -3 -2 -0 -2 -0 4 3 1 -1 -1 -3 -5 -2 -1 1 -0 4 1 -1 -2 -3 -2 -2 -2 -1 -4 -1 -2 1 -0 -3 -3 2 1 -0 14 -2 -1 -1 -4 -2 3 -0 -2
1 0 -2 -2 0 -0 0 -4 -1 0 -7 -10 -6 -2 -1 6 3 1 -0 1 -1 -3 -3 1 -0 -0 -2 1 2 1 0 -0 1 2 -1 -1 -3 2 1 -1 6 7 -0 0 -0 -0 -1 -0 -0
-1 0 -1 -2 -0 1 -1 -2 3 1 3 3 2 2 5 -5 -4 -1 -1 -0 -0 -3 -1 -4 -0 -3 -0 -1 1 4 6 5 3 -2 -1 -2 -3 -1 -0 2 2 6 2 -1 -2 -2 -1 2 0
3 -2 2 1 -1 -3 -2 -7 1 0 1 3 1 -0 -2 -1 2 1 -3 -5 -6 -5 1 3 2 -4 0 1 -0 -1 -4 -3 -5 -1 1 2 -1 -1 -1 5 2 1 1 2 1 1 -2 -1 1
-14 -1 -2 0 0 2 -2 -1 -12 1 4 -1 -1 -3 -1 -4 -4 -6 -10 -4 0 -1 -3 1 0 4 1 -1 -4 -1 -1 3 3 3 2 0 -2 -2 -3 0 2 0 0 2 0 -1 -2 -1 1
-3 1 2 -0 -1 7 -8 2 -9 -2 -10 -1 0 0 -2 -2 -2 -2 3 4 -5 0 -4 1 -0 -2 -0 0 -1 -4 -2 -1 -0 -1 -2 -1 1 -0 -1 -0 -2 1 0 2 3 -2 -2 -3 0
4 5 -2 1 3 -11 -1 10 -16 -2 -2 -6 -6 -4 -2 -1 0 -2 1 -8 1 -10 -6 -2 -2 -2 -3 -2 2 -4 -3 -1 3 1 -1 0 0 -3 -0 -0 -2 -3 1 2 1 -1 -3 -2 1
-5 -7 -8 -6 -1 -9 0 -2 -16 -8 -2 -3 -4 -4 6 2 -3 -9 -0 -7 -4 -1 -1 -0 -5 3 -3 -1 -4 -1 3 -1 0 1 1 0 -2 -1 2 -3 -1 -0 1 1 1 -2 -2 -1 -3
-7 8 -16 -4 -1 2 -8 -3 -4 2 2 2 -2 4 -2 -2 -6 -6 1 -4 -4 -6 -4 -9 -5 3 -1 -7 2 -1 2 -1 -8 -1 3 2 3 1 0 -1 0 -1 0 0 0 -1 -2 0 0
-5 -8 2 0 0 -1 -3 -1 -9 2 -2 -1 1 -2 -1 2 6 2 -4 -7 -6 -1 1 1 0 -5 -5 -3 -1 -0 -2 -1 -4 3 2 0 3 -2 -3 -1 0 1 1 1 0 -0 -0 -2 -0
4 6 4 -8 -4 -4 -1 -8 -6 -4 -4 -3 -3 -5 -5 -5 -3 -9 -1 1 5 4 -7 -3 -1 1 -4 1 1 2 -4 -3 0 -1 3 2 2 -2 -4 -2 -1 -0 -1 1 -0 -0 1 -3 -1
3 -2 -3 1 -8 -1 -4 -15 -1 -2 -2 -1 -3 -5 -3 -4 -8 -9 4 4 -6 -2 2 -6 1 -0 -6 -1 1 -5 -0 -1 1 -3 0 4 2 -2 -4 -2 -4 -1 -2 1 2 -1 -2 -2 -3
Height
1505 1508 1511 1512 1519 1514 1517 1507 1499 1502 1505 1503 1508 1509 1511 1515 1518 1530 1525 1531 1537 1540 1545 1548 1550 1552 1553 1554 1556 1557 1558 1560 1561 1563 1565 1566 1568 1569 1570 1571 1571 1572 1572 1572 1572 1572 1572 1572 1573
1506 1508 1512 1511 1511 1520 1513 1500 1501 1501 1502 1504 1509 1511 1513 1518 1518 1521 1527 1533 1538 1542 1546 1549 1552 1553 1555 1557 1558 1559 1561 1562 1563 1565 1567 1569 1570 1571 1571 1573 1574 1574 1574 1574 1574 1575 1575 1575 1576
1507 1509 1509 1501 1509 1512 1510 1503 1502 1502 1504 1504 1509 1512 1515 1518 1518 1522 1528 1534 1540 1544 1549 1550 1553 1555 1558 1559 1561 1562 1563 1565 1566 1568 1570 1571 1572 1572 1574 1575 1576 1576 1576 1576 1577 1577 1578 1578 1578
1507 1510 1509 1503 1507 1502 1500 1500 1500 1502 1505 1507 1508 1514 1518 1518 1520 1524 1529 1535 1541 1545 1549 1552 1555 1557 1560 1562 1563 1564 1566 1568 1569 1571 1572 1573 1574 1575 1576 1577 1578 1578 1577 1578 1579 1579 1580 1581 1581
1508 1507 1506 1507 1504 1498 1496 1497 1498 1500 1504 1507 1508 1516 1519 1521 1522 1527 1532 1538 1543 1547 1551 1554 1557 1559 1562 1564 1565 1566 1568 1570 1571 1573 1574 1575 1577 1578 1579 1580 1580 1580 1580 1581 1581 1582 1582 1583 1583
1507 1507 1511 1511 1508 1498 1498 1498 1497 1499 1503 1507 1508 1515 1521 1523 1524 1529 1535 1540 1546 1549 1552 1555 1558 1561 1563 1565 1567 1568 1570 1572 1573 1575 1577 1578 1579 1581 1582 1582 1583 1583 1583 1583 1584 1584 1584 1585 1585
1505 1507 1509 1509 1507 1500 1498 1497 1497 1499 1502 1505 1507 1514 1520 1525 1527 1530 1536 1541 1547 1552 1554 1556 1559 1562 1565 1567 1569 1571 1572 1574 1576 1577 1579 1581 1582 1583 1584 1585 1585 1586 1586 1586 1587 1587 1587 1588 1588
1504 1507 1507 1504 1506 1504 1496 1495 1495 1498 1502 1504 1507 1512 1518 1520 1527 1532 1538 1543 1547 1552 1556 1558 1561 1563 1566 1568 1571 1572 1574 1575 1577 1579 1581 1583 1585 1586 1586 1588 1588 1589 1589 1590 1590 1590 1590 1590 1591
1503 1509 1511 1502 1502 1497 1495 1495 1497 1498 1499 1503 1506 1507 1513 1519 1526 1532 1538 1544 1547 1551 1556 1559 1561 1564 1567 1569 1572 1573 1575 1577 1579 1581 1584 1585 1587 1588 1589 1590 1590 1591 1592 1593 1593 1592 1592 1593 1593
1502 1509 1501 1490 1490 1490 1492 1493 1496 1497 1500 1504 1505 1508 1514 1520 1526 1530 1535 1541 1545 1550 1555 1559 1562 1565 1567 1570 1572 1575 1577 1579 1581 1583 1585 1587 1589 1590 1591 1592 1591 1593 1594 1595 1595 1595 1594 1595 1595
1499 1502 1492 1488 1490 1487 1487 1491 1493 1496 1500 1500 1502 1506 1511 1520 1526 1530 1535 1541 1544 1549 1554 1558 1562 1565 1568 1571 1573 1576 1578 1580 1582 1585 1587 1588 1590 1592 1593 1594 1594 1595 1596 1596 1597 1597 1597 1597 1596
1497 1492 1491 1489 1490 1489 1490 1493 1494 1495 1495 1497 1501 1503 1509 1516 1522 1527 1533 1539 1544 1548 1553 1558 1562 1566 1569 1572 1575 1577 1579 1582 1584 1586 1588 1590 1591 1593 1594 1595 1596 1596 1598 1598 1598 1598 1598 1599 1598
1493 1491 1491 1489 1491 1492 1492 1492 1493 1492 1494 1495 1500 1508 1512 1516 1524 1530 1535 1541 1544 1548 1553 1558 1562 1566 1569 1572 1576 1578 1580 1583 1585 1587 1589 1591 1592 1593 1595 1596 1597 1598 1599 1599 1599 1599 1600 1600 1600
1486 1488 1491 1490 1489 1490 1489 1489 1490 1491 1492 1497 1500 1507 1513 1517 1520 1528 1534 1539 1543 1548 1552 1557 1561 1566 1569 1572 1576 1579 1581 1584 1586 1588 1589 1591 1593 1595 1596 1597 1597 1597 1599 1599 1600 1600 1601 1602 1603
1488 1491 1488 1487 1483 1486 1484 1489 1487 1489 1492 1497 1502 1509 1516 1517 1522 1524 1529 1535 1541 1546 1552 1556 1560 1565 1569 1572 1576 1579 1582 1585 1587 1588 1590 1592 1594 1595 1596 1598 1599 1598 1599 1600 1601 1602 1603 1604 1604
1487 1490 1499 1481 1481 1481 1483 1495 1486 1488 1490 1497 1504 1508 1514 1518 1522 1526 1531 1535 1539 1544 1550 1555 1559 1564 1568 1572 1576 1579 1582 1585 1587 1589 1591 1592 1594 1596 1597 1598 1599 1599 1600 1602 1602 1603 1604 1605 1606
1493 1500 1495 1485 1477 1479 1482 1487 1485 1488 1491 1496 1500 1505 1509 1517 1521 1524 1528 1534 1537 1542 1547 1553 1557 1562 1566 1571 1575 1579 1582 1584 1587 1589 1590 1592 1594 1596 1597 1599 1599 1600 1601 1602 1603 1604 1605 1606 1607
1500 1496 1487 1484 1475 1477 1481 1483 1486 1489 1490 1491 1496 1503 1509 1513 1516 1522 1527 1532 1538 1541 1545 1551 1555 1561 1565 1570 1574 1578 1580 1583 1586 1588 1590 1592 1594 1595 1597 1600 1601 1601 1602 1603 1604 1605 1605 1607 1608
1486 1486 1487 1477 1471 1477 1480 1480 1484 1486 1492 1494 1495 1500 1505 1506 1512 1520 1524 1529 1534 1539 1543 1547 1552 1557 1563 1566 1571 1574 1578 1581 1585 1587 1589 1591 1593 1595 1596 1599 1600 1601 1602 1603 1604 1605 1606 1607 1609
1486 1488 1488 1479 1470 1475 1479 1478 1479 1482 1480 1481 1485 1493 1500 1507 1510 1515 1520 1524 1528 1533 1538 1544 1548 1554 1559 1564 1569 1572 1576 1580 1584 1586 1588 1590 1592 1594 1596 1597 1599 1601 1601 1603 1604 1605 1606 1608 1609
1487 1490 1487 1483 1475 1471 1477 1483 1480 1480 1482 1486 1489 1493 1496 1499 1505 1510 1514 1519 1524 1527 1533 1539 1545 1550 1556 1562 1566 1570 1574 1578 1581 1584 1587 1589 1591 1593 1595 1597 1599 1600 1602 1603 1604 1605 1606 1607 1609
1494 1479 1481 1483 1487 1498 1474 1499 1477 1474 1476 1479 1482 1484 1488 1493 1499 1505 1509 1514 1518 1522 1529 1535 1541 1546 1552 1558 1563 1566 1570 1574 1578 1581 1585 1588 1590 1592 1594 1596 1598 1599 1600 1602 1603 1604 1606 1608 1609
1473 1474 1481 1483 1489 1487 1479 1492 1473 1467 1477 1472 1473 1476 1480 1484 1490 1496 1500 1505 1512 1520 1523 1531 1537 1542 1548 1553 1558 1563 1567 1571 1575 1579 1582 1585 1588 1590 1592 1594 1597 1598 1600 1601 1602 1604 1605 1606 1608
1465 1472 1478 1483 1492 1496 1480 1482 1480 1469 1460 1460 1463 1467 1472 1477 1483 1489 1495 1503 1508 1515 1520 1525 1531 1536 1542 1547 1553 1557 1562 1567 1571 1574 1579 1582 1585 1587 1590 1593 1595 1597 1598 1600 1601 1602 1603 1604 1606
1465 1477 1508 1512 1507 1479 1464 1473 1464 1449 1444 1447 1450 1454 1460 1469 1476 1482 1488 1495 1501 1507 1512 1518 1524 1530 1535 1541 1547 1552 1557 1562 1566 1570 1574 1577 1580 1583 1586 1590 1592 1595 1597 1598 1600 1601 1601 1602 1604
1459 1466 1491 1508 1501 1476 1470 1471 1454 1436 1437 1438 1440 1442 1456 1464 1469 1474 1482 1487 1494 1499 1504 1510 1516 1523 1529 1534 1540 1546 1552 1557 1561 1566 1570 1572 1575 1579 1584 1587 1590 1592 1594 1596 1597 1598 1599 1600 1602
1457 1460 1457 1477 1479 1485 1454 1453 1438 1430 1432 1435 1436 1442 1449 1454 1459 1463 1471 1478 1485 1492 1495 1500 1509 1516 1522 1528 1534 1539 1545 1550 1556 1561 1565 1569 1572 1576 1581 1583 1586 1589 1591 1593 1595 1596 1597 1598 1599
1441 1441 1465 1472 1479 1487 1462 1458 1443 1438 1436 1432 1431 1434 1439 1445 1450 1456 1462 1468 1473 1480 1489 1496 1502 1508 1514 1521 1528 1533 1538 1545 1550 1556 1560 1564 1569 1573 1577 1580 1582 1585 1588 1591 1592 1593 1594 1595 1596
1440 1438 1438 1443 1460 1459 1476 1457 1421 1425 1423 1426 1423 1426 1429 1434 1439 1445 1450 1457 1464 1473 1481 1486 1494 1500 1508 1515 1521 1527 1532 1538 1544 1549 1555 1560 1565 1568 1572 1575 1578 1581 1584 1586 1588 1590 1592 1592 1593
1445 1431 1432 1437 1452 1459 1461 1441 1414 1411 1414 1414 1415 1418 1420 1424 1428 1433 1439 1447 1455 1460 1469 1475 1484 1491 1499 1507 1514 1520 1526 1532 1537 1543 1548 1554 1559 1563 1566 1570 1573 1576 1579 1581 1583 1586 1587 1589 1590